Torna al catalogo

FENGYUN 1C DEB

AttivoSSO
NORAD 29887·DEBRIS·🇨🇳 China

Lanciato May 10, 1999 da Taiyuan Satellite Launch Center

Loading…

Prossimi Passaggi (prossime 24 ore)

TLE

AggiornatoSource: Space-Track

Epoca: Sep 14, 2026, 04:57 UTC

1 29887U 99025GH  26257.20649017  .00001328  00000-0  30981-3 0  9998
2 29887  98.7049 346.4395 0281323 264.8440 121.8783 14.35202898 19231

Traccia FENGYUN 1C DEB in tempo reale con AllMySat

Download on the App Store